Home   Weather   Monticello   Past weeks

Flag for USA Past Weather in Monticello, Kentucky, USA — Yesterday and Last 2 Weeks

Now
52 °F

Clear.


Feels Like: 52 °F
Forecast: 47 / 83 °F
Wind: No wind

Location: London-Corbin Airport-Magee Field

Current Time: Apr 28, 2017 at 4:41:23 am

Latest Report: Apr 28, 2017 at 3:53 am


Visibility: 10 mi

Pressure: 29.92 "Hg

Humidity: 89%

Dew Point: 49 °F

Location of MonticelloLocation

Past Weather in Monticello — Graph

°F

Monticello Temperature Yesterday

Maximum temperature yesterday: 78 °F (at 3:53 pm)
Minimum temperature yesterday: 56 °F (at 11:53 pm)
Average temperature yesterday: 68 °F

High & Low Weather Summary for the Past Weeks

 TemperatureHumidityPressure
High84 °F (Apr 14, 5:53 pm)93% (Apr 17, 5:53 am)30.32 "Hg (Apr 17, 5:53 am)
Low45 °F (Apr 13, 6:53 am)10% (Apr 13, 6:53 pm)29.62 "Hg (Apr 26, 8:53 pm)
Average63 °F70%29.99 "Hg
* Reported Apr 13 2:53 am — Apr 28 2:53 am, Monticello, Weather by CustomWeather, © 2017

Note: Actual official high and low records may vary slightly from our data, if they occured in-between our weather recording intervals... More about our weather records

Advertising

Monticello Weather History for the Previous 24 Hours

Scroll right to see more
 ConditionsComfort  
Time TempWeatherWind HumidityBarometerVisibility
2:53 am
Fri, Apr 28
52 °FClear.No wind89%29.92 "Hg10 mi
1:53 am53 °FClear.No wind89%29.92 "Hg10 mi
12:53 am55 °FClear.No wind90%29.91 "Hg10 mi
11:53 pm
Thu, Apr 27
56 °FClear.No wind87%29.89 "Hg10 mi
10:53 pm62 °FClear.No wind70%29.88 "Hg10 mi
9:53 pm63 °FClear.6 mph68%29.84 "Hg10 mi
8:53 pm66 °FClear.7 mph54%29.82 "Hg10 mi
7:53 pm69 °FSunny.7 mph49%29.80 "Hg10 mi
6:53 pm73 °FPassing clouds.15 mph44%29.78 "Hg10 mi
5:53 pm75 °FPassing clouds.14 mph43%29.74 "Hg10 mi
4:53 pm77 °FSunny.15 mph37%29.72 "Hg10 mi
3:53 pm78 °FScattered clouds.22 mph40%29.70 "Hg10 mi
2:53 pm76 °FScattered clouds.18 mph47%29.70 "Hg10 mi
1:53 pm70 °FPassing clouds.15 mph71%29.70 "Hg10 mi
1:02 pm66 °FScattered clouds.8 mph81%29.74 "Hg10 mi
12:00 pm63 °FLight rain. Fog.8 mph87%29.75 "Hg3 mi
10:53 am64 °FMostly cloudy.13 mph78%29.69 "Hg10 mi
9:53 am64 °FLight rain. Broken clouds.13 mph78%29.68 "Hg10 mi
8:53 am63 °FCloudy.12 mph78%29.66 "Hg10 mi
7:53 am64 °FLight rain. Cloudy.15 mph75%29.65 "Hg10 mi
6:53 am65 °FLight rain. Mostly cloudy.9 mph73%29.67 "Hg6 mi
5:53 am69 °FClear.8 mph55%29.65 "Hg10 mi
4:53 am69 °FClear.3 mph57%29.65 "Hg10 mi
Weather by CustomWeather, © 2017

See weather overviewHow to use our weather pages